Location: Huberhof
(49.2050°N, 7.4980°E)
Time: 05:15:26
(UTC+00:00)

ATLAS 2AS CENTAUR R/B - Pass Details

Date: 29 October 2020
Orbit: 939 x 1273 km, 63.7° (Epoch: 23 November)

Event Time Altitude Azimuth Distance (km) Brightness Sun altitude
Rises 18:13:14 0° 316° (NW) 4,179 6.5 -20.1°
Reaches altitude 10° 18:16:10 10° 320° (NW) 3,175 5.7 -20.6°
Maximum altitude 18:23:42 60° 40° (NE) 1,306 2.9 -21.8°
Enters shadow 18:26:17 40° 100° (E) 1,618 3.1 -22.2°
